Location: Tel Aviv
(32.0670°N, 34.7670°E)
Time: 04:52:43
(UTC+03:00)

Vanguard 2 - Pass Details

Date: 26 January 2022
Orbit: 552 x 2935 km, 32.9° (Epoch: 25 May)

Event Time Altitude Azimuth Distance (km) Brightness Sun altitude
Rises 03:40:07 0° 280° (W) 6,492 - -37.7°
Reaches altitude 10° 03:45:31 10° 268° (W) 5,661 - -36.6°
Maximum altitude 03:58:00 24° 223° (SW) 4,612 - -33.9°
Exits shadow 03:58:42 24° 220° (SW) 4,605 11.1 -33.8°
Drops below altitude 10° 04:09:55 10° 177° (S) 5,318 11.8 -31.4°
Sets 04:14:53 0° 164° (SSE) 6,026 12.3 -30.3°
